Location: Newark
(35.6799°N, 139.7636°E)
Time: 05:40:26
(UTC+00:00)

Transit 2A - Pass Details

Date: 08 December 2019
Orbit: 601 x 957 km, 66.7° (Epoch: 17 January)

Event Time Altitude Azimuth Distance (km) Brightness Sun altitude
Rises 22:59:00 0° 248° (WSW) 3,103 8.9 12.7°
Reaches altitude 10° 23:02:16 10° 269° (W) 2,118 7.9 13.2°
Maximum altitude 23:05:13 16° 308° (NW) 1,689 7.3 13.7°
Drops below altitude 10° 23:08:04 10° 347° (NNW) 2,021 7.8 14.1°
Sets 23:11:05 0° 9° (N) 2,892 8.7 14.5°
